| time (UTC) | temp C | wind direction | speed KPH | gust KPH | rain 1hr cm | rain 24hr cm | rain mn cm | humidity % | barometer mb |
| 20260504050518 | 9 | 224 | 3.2 | 6.4 | 0.00 | 0.00 | 0.00 | 66 | 1001.4 |
| 20260504045518 | 9 | 224 | 3.2 | 8.0 | 0.00 | 0.00 | 0.00 | 65 | 1001.6 |
| 20260504045017 | 9 | 224 | 3.2 | 8.0 | 0.00 | 0.00 | 0.00 | 65 | 1001.7 |
| 20260504044534 | 9 | 0 | 0.0 | 4.8 | 0.00 | 0.00 | 0.00 | 64 | 1001.9 |
| 20260504044021 | 10 | 0 | 0.0 | 3.2 | 0.00 | 0.00 | 0.00 | 63 | 1001.8 |
| 20260504043517 | 10 | 0 | 0.0 | 4.8 | 0.00 | 0.00 | 0.00 | 63 | 1001.9 |
| 20260504043032 | 10 | 224 | 0.0 | 4.8 | 0.00 | 0.00 | 0.00 | 62 | 1002.0 |
| 20260504042517 | 10 | 224 | 1.6 | 4.8 | 0.00 | 0.00 | 0.00 | 62 | 1002.0 |
| 20260504042018 | 10 | 224 | 1.6 | 4.8 | 0.00 | 0.00 | 0.00 | 62 | 1002.0 |
| 20260504041534 | 10 | 224 | 3.2 | 4.8 | 0.00 | 0.00 | 0.00 | 62 | 1002.2 |
| 20260504041017 | 10 | 224 | 3.2 | 6.4 | 0.00 | 0.00 | 0.00 | 62 | 1002.2 |
| 20260504040515 | 10 | 223 | 3.2 | 6.4 | 0.00 | 0.00 | 0.00 | 61 | 1002.3 |
| 20260504040034 | 10 | 226 | 3.2 | 8.0 | 0.00 | 0.00 | 0.00 | 61 | 1002.4 |
| 20260504035515 | 10 | 225 | 3.2 | 8.0 | 0.00 | 0.00 | 0.00 | 60 | 1002.6 |
| 20260504035015 | 10 | 225 | 4.8 | 8.0 | 0.00 | 0.00 | 0.00 | 59 | 1002.7 |
| 20260504034533 | 10 | 226 | 3.2 | 6.4 | 0.00 | 0.00 | 0.00 | 59 | 1002.8 |
| 20260504034021 | 10 | 226 | 3.2 | 6.4 | 0.00 | 0.00 | 0.00 | 58 | 1002.8 |
| 20260504033514 | 10 | 224 | 3.2 | 6.4 | 0.00 | 0.00 | 0.00 | 57 | 1003.0 |
| 20260504033038 | 11 | 224 | 3.2 | 6.4 | 0.00 | 0.00 | 0.00 | 56 | 1003.0 |
| 20260504032518 | 11 | 224 | 3.2 | 6.4 | 0.00 | 0.00 | 0.00 | 55 | 1003.1 |
| 20260504032015 | 11 | 224 | 1.6 | 4.8 | 0.00 | 0.00 | 0.00 | 53 | 1003.1 |
| 20260504031534 | 11 | 224 | 1.6 | 4.8 | 0.00 | 0.00 | 0.00 | 53 | 1003.2 |
| 20260504031017 | 11 | 224 | 1.6 | 3.2 | 0.00 | 0.00 | 0.00 | 52 | 1003.2 |
| 20260504030517 | 11 | 0 | 0.0 | 0.0 | 0.00 | 0.00 | 0.00 | 53 | 1003.3 |
| 20260504030034 | 11 | 0 | 0.0 | 0.0 | 0.00 | 0.00 | 0.00 | 52 | 1003.3 |
| 20260504025520 | 12 | 0 | 0.0 | 0.0 | 0.00 | 0.00 | 0.00 | 51 | 1003.4 |
| 20260504025017 | 12 | 0 | 0.0 | 0.0 | 0.00 | 0.00 | 0.00 | 51 | 1003.4 |
| 20260504024535 | 12 | 0 | 0.0 | 0.0 | 0.00 | 0.00 | 0.00 | 50 | 1003.3 |
| 20260504024018 | 12 | 0 | 0.0 | 0.0 | 0.00 | 0.00 | 0.00 | 50 | 1003.3 |
| 20260504023518 | 12 | 0 | 0.0 | 0.0 | 0.00 | 0.00 | 0.00 | 50 | 1003.4 |
| 20260504023035 | 13 | 0 | 0.0 | 0.0 | 0.00 | 0.00 | 0.00 | 48 | 1003.4 |
| 20260504022521 | 13 | 0 | 0.0 | 0.0 | 0.00 | 0.00 | 0.00 | 47 | 1003.4 |
| 20260504022018 | 13 | 0 | 0.0 | 0.0 | 0.00 | 0.00 | 0.00 | 47 | 1003.4 |
| 20260504021535 | 13 | 0 | 0.0 | 0.0 | 0.00 | 0.00 | 0.00 | 45 | 1003.4 |
| 20260504021017 | 14 | 0 | 0.0 | 0.0 | 0.00 | 0.00 | 0.00 | 45 | 1003.4 |
| 20260504020518 | 14 | 0 | 0.0 | 0.0 | 0.00 | 0.00 | 0.00 | 45 | 1003.4 |
| 20260504020034 | 15 | 0 | 0.0 | 0.0 | 0.00 | 0.00 | 0.00 | 44 | 1003.4 |
| 20260504015518 | 15 | 0 | 0.0 | 0.0 | 0.00 | 0.00 | 0.00 | 43 | 1003.3 |
| 20260504015026 | 15 | 0 | 0.0 | 0.0 | 0.00 | 0.00 | 0.00 | 41 | 1003.3 |
| 20260504014545 | 16 | 0 | 0.0 | 0.0 | 0.00 | 0.00 | 0.00 | 41 | 1003.4 |
| 20260504014021 | 16 | 0 | 0.0 | 0.0 | 0.00 | 0.00 | 0.00 | 40 | 1003.4 |
| 20260504013518 | 16 | 0 | 0.0 | 0.0 | 0.00 | 0.00 | 0.00 | 40 | 1003.4 |
| 20260504013041 | 17 | 0 | 0.0 | 0.0 | 0.00 | 0.00 | 0.00 | 36 | 1003.5 |
| 20260504012520 | 17 | 0 | 0.0 | 0.0 | 0.00 | 0.00 | 0.00 | 34 | 1003.5 |
| 20260504012018 | 17 | 0 | 0.0 | 0.0 | 0.00 | 0.00 | 0.00 | 33 | 1003.5 |
| 20260504011536 | 17 | 0 | 0.0 | 0.0 | 0.00 | 0.00 | 0.00 | 33 | 1003.5 |
| 20260504011018 | 18 | 0 | 0.0 | 0.0 | 0.00 | 0.00 | 0.00 | 32 | 1003.6 |
| 20260504010522 | 18 | 0 | 0.0 | 0.0 | 0.00 | 0.00 | 0.00 | 31 | 1003.6 |
| 20260504010035 | 18 | 0 | 0.0 | 0.0 | 0.00 | 0.00 | 0.00 | 30 | 1003.7 |
| 20260504005518 | 18 | 0 | 0.0 | 0.0 | 0.00 | 0.00 | 0.00 | 30 | 1003.7 |
| 20260504005018 | 18 | 0 | 0.0 | 6.4 | 0.00 | 0.00 | 0.00 | 28 | 1003.7 |
| 20260504004532 | 18 | 0 | 0.0 | 11.3 | 0.00 | 0.00 | 0.00 | 28 | 1003.7 |
| 20260504004019 | 19 | 242 | 1.6 | 11.3 | 0.00 | 0.00 | 0.00 | 29 | 1003.7 |
| 20260504003519 | 19 | 236 | 3.2 | 11.3 | 0.00 | 0.00 | 0.00 | 28 | 1003.7 |
| 20260504003031 | 19 | 0 | 3.2 | 6.4 | 0.00 | 0.00 | 0.00 | 27 | 1003.7 |
| 20260504002517 | 19 | 240 | 1.6 | 8.0 | 0.00 | 0.00 | 0.00 | 26 | 1003.7 |
| 20260504002017 | 20 | 240 | 4.8 | 19.3 | 0.00 | 0.00 | 0.00 | 26 | 1003.7 |
| 20260504001546 | 20 | 236 | 4.8 | 19.3 | 0.00 | 0.00 | 0.00 | 26 | 1003.8 |
| 20260504001017 | 20 | 215 | 8.0 | 19.3 | 0.00 | 0.00 | 0.00 | 26 | 1003.8 |
| 20260504000517 | 20 | 295 | 4.8 | 12.9 | 0.00 | 0.00 | 0.00 | 25 | 1003.8 |
| 20260504000043 | 20 | 247 | 3.2 | 12.9 | 0.00 | 0.00 | 0.00 | 24 | 1003.7 |
| 20260503235519 | 20 | 264 | 4.8 | 17.7 | 0.00 | 0.00 | 0.00 | 24 | 1003.8 |
| 20260503235017 | 20 | 279 | 3.2 | 19.3 | 0.00 | 0.00 | 0.00 | 25 | 1003.8 |
| 20260503234535 | 20 | 244 | 8.0 | 19.3 | 0.00 | 0.00 | 0.00 | 24 | 1003.7 |
| 20260503234018 | 20 | 260 | 4.8 | 24.1 | 0.00 | 0.00 | 0.00 | 23 | 1003.7 |
| 20260503233517 | 21 | 242 | 8.0 | 24.1 | 0.00 | 0.00 | 0.00 | 25 | 1003.7 |
| 20260503233036 | 21 | 279 | 6.4 | 22.5 | 0.00 | 0.00 | 0.00 | 24 | 1003.8 |
| 20260503232517 | 21 | 279 | 11.3 | 22.5 | 0.00 | 0.00 | 0.00 | 23 | 1003.8 |
| 20260503232017 | 21 | 306 | 9.7 | 20.9 | 0.00 | 0.00 | 0.00 | 23 | 1003.8 |
| 20260503231541 | 21 | 282 | 6.4 | 29.0 | 0.00 | 0.00 | 0.00 | 22 | 1003.9 |
| 20260503231018 | 21 | 235 | 11.3 | 29.0 | 0.00 | 0.00 | 0.00 | 23 | 1004.0 |
| 20260503230518 | 21 | 342 | 4.8 | 17.7 | 0.00 | 0.00 | 0.00 | 23 | 1004.1 |
| 20260503230037 | 21 | 258 | 11.3 | 22.5 | 0.00 | 0.00 | 0.00 | 23 | 1004.0 |
| 20260503225520 | 21 | 0 | 9.7 | 22.5 | 0.00 | 0.00 | 0.00 | 22 | 1004.2 |
| 20260503225017 | 21 | 274 | 4.8 | 22.5 | 0.00 | 0.00 | 0.00 | 24 | 1004.2 |
| 20260503224540 | 21 | 359 | 11.3 | 22.5 | 0.00 | 0.00 | 0.00 | 23 | 1004.1 |
| 20260503224018 | 21 | 269 | 4.8 | 20.9 | 0.00 | 0.00 | 0.00 | 24 | 1004.2 |
| 20260503223519 | 21 | 334 | 4.8 | 14.5 | 0.00 | 0.00 | 0.00 | 25 | 1004.1 |
| 20260503223036 | 21 | 237 | 0.0 | 17.7 | 0.00 | 0.00 | 0.00 | 26 | 1004.2 |
| 20260503222517 | 21 | 269 | 4.8 | 17.7 | 0.00 | 0.00 | 0.00 | 23 | 1004.2 |
| 20260503222017 | 21 | 258 | 6.4 | 16.1 | 0.00 | 0.00 | 0.00 | 25 | 1004.3 |
| 20260503221544 | 21 | 21 | 8.0 | 17.7 | 0.00 | 0.00 | 0.00 | 25 | 1004.3 |
| 20260503221018 | 21 | 32 | 6.4 | 17.7 | 0.00 | 0.00 | 0.00 | 24 | 1004.3 |
| 20260503220518 | 21 | 288 | 6.4 | 24.1 | 0.00 | 0.00 | 0.00 | 26 | 1004.4 |
| 20260503220032 | 21 | 224 | 8.0 | 25.7 | 0.00 | 0.00 | 0.00 | 22 | 1004.3 |
| 20260503215518 | 21 | 286 | 8.0 | 30.6 | 0.00 | 0.00 | 0.00 | 23 | 1004.4 |
| 20260503215018 | 21 | 342 | 9.7 | 30.6 | 0.00 | 0.00 | 0.00 | 25 | 1004.4 |
| 20260503214537 | 21 | 251 | 11.3 | 30.6 | 0.00 | 0.00 | 0.00 | 22 | 1004.4 |
| 20260503214017 | 21 | 327 | 4.8 | 24.1 | 0.00 | 0.00 | 0.00 | 24 | 1004.4 |
| 20260503213517 | 21 | 232 | 11.3 | 25.7 | 0.00 | 0.00 | 0.00 | 26 | 1004.3 |
| 20260503213037 | 21 | 227 | 8.0 | 25.7 | 0.00 | 0.00 | 0.00 | 27 | 1004.4 |
| 20260503212521 | 21 | 271 | 8.0 | 25.7 | 0.00 | 0.00 | 0.00 | 28 | 1004.5 |
| 20260503212018 | 21 | 27 | 8.0 | 27.4 | 0.00 | 0.00 | 0.00 | 27 | 1004.3 |
| 20260503211533 | 21 | 253 | 1.6 | 27.4 | 0.00 | 0.00 | 0.00 | 30 | 1004.3 |
| 20260503211020 | 21 | 278 | 14.5 | 27.4 | 0.00 | 0.00 | 0.00 | 26 | 1004.5 |
| 20260503210517 | 21 | 307 | 6.4 | 19.3 | 0.00 | 0.00 | 0.00 | 27 | 1004.4 |
| 20260503210044 | 21 | 301 | 8.0 | 19.3 | 0.00 | 0.00 | 0.00 | 28 | 1004.4 |
| 20260503205519 | 21 | 307 | 3.2 | 20.9 | 0.00 | 0.00 | 0.00 | 29 | 1004.4 |
| 20260503205018 | 21 | 280 | 8.0 | 20.9 | 0.00 | 0.00 | 0.00 | 27 | 1004.4 |
| 20260503204541 | 21 | 359 | 6.4 | 20.9 | 0.00 | 0.00 | 0.00 | 30 | 1004.5 |
| 20260503204020 | 21 | 280 | 6.4 | 29.0 | 0.00 | 0.00 | 0.00 | 27 | 1004.6 |
| 20260503203519 | 21 | 350 | 11.3 | 29.0 | 0.00 | 0.00 | 0.00 | 30 | 1004.6 |
| 20260503203038 | 21 | 288 | 4.8 | 24.1 | 0.00 | 0.00 | 0.00 | 28 | 1004.6 |
| 20260503202519 | 21 | 245 | 11.3 | 24.1 | 0.00 | 0.00 | 0.00 | 28 | 1004.8 |
| 20260503202017 | 21 | 267 | 8.0 | 19.3 | 0.00 | 0.00 | 0.00 | 29 | 1004.8 |
| 20260503201536 | 21 | 267 | 6.4 | 24.1 | 0.00 | 0.00 | 0.00 | 35 | 1004.9 |
| 20260503201017 | 21 | 0 | 11.3 | 24.1 | 0.00 | 0.00 | 0.00 | 26 | 1004.7 |
| 20260503200519 | 21 | 300 | 8.0 | 20.9 | 0.00 | 0.00 | 0.00 | 26 | 1004.8 |
| 20260503200043 | 21 | 284 | 9.7 | 24.1 | 0.00 | 0.00 | 0.00 | 26 | 1004.9 |
| 20260503195517 | 21 | 323 | 6.4 | 24.1 | 0.00 | 0.00 | 0.00 | 27 | 1004.9 |
| 20260503195017 | 21 | 290 | 9.7 | 24.1 | 0.00 | 0.00 | 0.00 | 26 | 1005.1 |
| 20260503194535 | 21 | 283 | 9.7 | 20.9 | 0.00 | 0.00 | 0.00 | 26 | 1005.0 |
| 20260503194015 | 21 | 308 | 9.7 | 22.5 | 0.00 | 0.00 | 0.00 | 30 | 1005.2 |
| 20260503193515 | 21 | 342 | 11.3 | 22.5 | 0.00 | 0.00 | 0.00 | 31 | 1005.1 |
| 20260503193035 | 21 | 26 | 11.3 | 24.1 | 0.00 | 0.00 | 0.00 | 34 | 1005.2 |
| 20260503192514 | 21 | 272 | 6.4 | 24.1 | 0.00 | 0.00 | 0.00 | 37 | 1005.2 |
| 20260503192020 | 21 | 313 | 8.0 | 24.1 | 0.00 | 0.00 | 0.00 | 34 | 1005.3 |
| 20260503191532 | 21 | 339 | 8.0 | 24.1 | 0.00 | 0.00 | 0.00 | 34 | 1005.2 |
| 20260503191022 | 21 | 286 | 8.0 | 22.5 | 0.00 | 0.00 | 0.00 | 34 | 1005.1 |
| 20260503190514 | 21 | 286 | 6.4 | 29.0 | 0.00 | 0.00 | 0.00 | 36 | 1005.3 |
| 20260503190043 | 21 | 9 | 9.7 | 29.0 | 0.00 | 0.00 | 0.00 | 30 | 1005.2 |
| 20260503185517 | 21 | 43 | 6.4 | 19.3 | 0.00 | 0.00 | 0.00 | 35 | 1005.3 |
| 20260503185021 | 21 | 331 | 9.7 | 37.0 | 0.00 | 0.00 | 0.00 | 32 | 1005.3 |
| 20260503184536 | 21 | 337 | 19.3 | 37.0 | 0.00 | 0.00 | 0.00 | 29 | 1005.3 |
| 20260503184018 | 21 | 263 | 9.7 | 22.5 | 0.00 | 0.00 | 0.00 | 31 | 1005.4 |
| 20260503183516 | 21 | 340 | 8.0 | 25.7 | 0.00 | 0.00 | 0.00 | 37 | 1005.5 |
| 20260503183032 | 22 | 350 | 8.0 | 25.7 | 0.00 | 0.00 | 0.00 | 34 | 1005.4 |
| 20260503182513 | 21 | 335 | 11.3 | 25.7 | 0.00 | 0.00 | 0.00 | 30 | 1005.3 |
| 20260503182017 | 21 | 326 | 9.7 | 22.5 | 0.00 | 0.00 | 0.00 | 34 | 1005.4 |
| 20260503181534 | 21 | 294 | 11.3 | 22.5 | 0.00 | 0.00 | 0.00 | 36 | 1005.4 |
| 20260503181018 | 21 | 290 | 6.4 | 27.4 | 0.00 | 0.00 | 0.00 | 41 | 1005.6 |
| 20260503180517 | 21 | 318 | 9.7 | 27.4 | 0.00 | 0.00 | 0.00 | 37 | 1005.5 |
| 20260503180034 | 21 | 333 | 9.7 | 20.9 | 0.00 | 0.00 | 0.00 | 37 | 1005.4 |
| 20260503175515 | 21 | 188 | 6.4 | 27.4 | 0.00 | 0.00 | 0.00 | 36 | 1005.5 |
| 20260503175018 | 21 | 0 | 11.3 | 27.4 | 0.00 | 0.00 | 0.00 | 37 | 1005.4 |
| 20260503174533 | 21 | 198 | 6.4 | 27.4 | 0.00 | 0.00 | 0.00 | 39 | 1005.5 |
| 20260503174017 | 21 | 26 | 3.2 | 27.4 | 0.00 | 0.00 | 0.00 | 42 | 1005.7 |
| 20260503173514 | 21 | 7 | 9.7 | 27.4 | 0.00 | 0.00 | 0.00 | 39 | 1005.8 |
| 20260503173049 | 21 | 332 | 8.0 | 30.6 | 0.00 | 0.00 | 0.00 | 42 | 1005.7 |
| 20260503172517 | 21 | 293 | 11.3 | 30.6 | 0.00 | 0.00 | 0.00 | 34 | 1005.7 |
| 20260503172016 | 20 | 285 | 9.7 | 29.0 | 0.00 | 0.00 | 0.00 | 37 | 1005.8 |
| 20260503171608 | 20 | 328 | 4.8 | 20.9 | 0.00 | 0.00 | 0.00 | 37 | 1005.8 |
| 20260503171535 | 20 | 328 | 4.8 | 20.9 | 0.00 | 0.00 | 0.00 | 37 | 1005.8 |
| 20260503171015 | 20 | 350 | 8.0 | 20.9 | 0.00 | 0.00 | 0.00 | 35 | 1005.9 |
| 20260503170518 | 20 | 350 | 9.7 | 24.1 | 0.00 | 0.00 | 0.00 | 35 | 1005.8 |
| 20260503150516 | 17 | 40 | 4.8 | 8.0 | 0.00 | 0.00 | 0.00 | 56 | 1005.5 |
| 20260503131018 | 15 | 219 | 4.8 | 12.9 | 0.00 | 0.00 | 0.00 | 49 | 1005.2 |
| 20260503130518 | 14 | 209 | 4.8 | 12.9 | 0.00 | 0.00 | 0.00 | 50 | 1005.3 |
| 20260503110517 | 11 | 0 | 1.6 | 9.7 | 0.00 | 0.00 | 0.00 | 55 | 1004.5 |
| 20260503081549 | 13 | 219 | 3.2 | 14.5 | 0.00 | 0.00 | 0.00 | 54 | 1005.3 |
| 20260503081017 | 13 | 199 | 4.8 | 14.5 | 0.00 | 0.00 | 0.00 | 53 | 1005.2 |
| 20260503080517 | 13 | 0 | 3.2 | 14.5 | 0.00 | 0.00 | 0.00 | 54 | 1005.3 |
| 20260503072517 | 13 | 145 | 3.2 | 9.7 | 0.00 | 0.00 | 0.00 | 54 | 1006.1 |
| 20260503072020 | 13 | 209 | 4.8 | 9.7 | 0.00 | 0.00 | 0.00 | 54 | 1006.1 |
| 20260503071541 | 13 | 197 | 4.8 | 12.9 | 0.00 | 0.00 | 0.00 | 53 | 1006.2 |
| 20260503071019 | 12 | 251 | 4.8 | 12.9 | 0.00 | 0.00 | 0.00 | 53 | 1006.3 |
| 20260503070517 | 12 | 195 | 4.8 | 16.1 | 0.00 | 0.00 | 0.00 | 53 | 1006.3 |
| 20260503055023 | 13 | 207 | 3.2 | 9.7 | 0.00 | 0.00 | 0.00 | 53 | 1007.6 |
| 20260503054539 | 13 | 193 | 3.2 | 12.9 | 0.00 | 0.00 | 0.00 | 53 | 1007.6 |
| 20260503054019 | 13 | 170 | 3.2 | 12.9 | 0.00 | 0.00 | 0.00 | 53 | 1007.6 |
| 20260503053516 | 13 | 181 | 1.6 | 11.3 | 0.00 | 0.00 | 0.00 | 53 | 1007.6 |
| 20260503053030 | 13 | 182 | 3.2 | 11.3 | 0.00 | 0.00 | 0.00 | 52 | 1007.7 |
| 20260503052524 | 13 | 184 | 1.6 | 4.8 | 0.00 | 0.00 | 0.00 | 52 | 1007.7 |